| time (UTC) | temp C | wind direction | speed KPH | gust KPH | rain 1hr cm | rain 24hr cm | rain mn cm | humidity % | barometer mb |
| 20260505153009 | 12 | 191 | 11.3 | 30.6 | 0.00 | 0.00 | 0.00 | 81 | 1008.9 |
| 20260505151502 | 12 | 160 | 19.3 | 35.4 | 0.00 | 0.00 | 0.00 | 80 | 1009.2 |
| 20260505140106 | 12 | 210 | 17.7 | 27.4 | 0.00 | 0.00 | 0.00 | 82 | 1009.1 |
| 20260505124553 | 12 | 226 | 8.0 | 16.1 | 0.00 | 0.00 | 0.00 | 81 | 1009.2 |
| 20260505123050 | 11 | 209 | 11.3 | 25.7 | 0.00 | 0.00 | 0.00 | 82 | 1009.2 |
| 20260505121547 | 11 | 203 | 11.3 | 22.5 | 0.00 | 0.00 | 0.00 | 82 | 1009.4 |
| 20260505120044 | 11 | 207 | 6.4 | 17.7 | 0.00 | 0.00 | 0.00 | 83 | 1009.3 |
| 20260505114546 | 10 | 230 | 6.4 | 17.7 | 0.00 | 0.00 | 0.00 | 84 | 1009.3 |
| 20260505113040 | 10 | 207 | 4.8 | 17.7 | 0.00 | 0.00 | 0.00 | 84 | 1009.2 |
| 20260505111550 | 10 | 183 | 8.0 | 14.5 | 0.00 | 0.00 | 0.00 | 85 | 1008.9 |
| 20260505101532 | 8 | 158 | 9.7 | 14.5 | 0.00 | 0.00 | 0.00 | 87 | 1009.0 |
| 20260505100041 | 8 | 183 | 6.4 | 11.3 | 0.00 | 0.00 | 0.00 | 87 | 1009.0 |
| 20260505094530 | 8 | 185 | 4.8 | 9.7 | 0.00 | 0.00 | 0.00 | 88 | 1008.9 |
| 20260505093029 | 7 | 253 | 1.6 | 3.2 | 0.00 | 0.00 | 0.00 | 88 | 1008.7 |
| 20260505091527 | 8 | 253 | 1.6 | 8.0 | 0.00 | 0.00 | 0.00 | 87 | 1008.8 |
| 20260505090047 | 8 | 259 | 4.8 | 9.7 | 0.00 | 0.00 | 0.00 | 86 | 1008.8 |
| 20260505084534 | 8 | 270 | 6.4 | 14.5 | 0.00 | 0.00 | 0.00 | 86 | 1008.7 |
| 20260505083035 | 8 | 228 | 8.0 | 14.5 | 0.00 | 0.00 | 0.00 | 86 | 1008.8 |
| 20260505081536 | 8 | 282 | 8.0 | 16.1 | 0.00 | 0.00 | 0.00 | 85 | 1008.6 |
| 20260505080035 | 8 | 264 | 6.4 | 12.9 | 0.00 | 0.00 | 0.00 | 85 | 1008.6 |
| 20260505074521 | 8 | 258 | 6.4 | 12.9 | 0.00 | 0.00 | 0.00 | 86 | 1008.6 |
| 20260505073020 | 8 | 321 | 6.4 | 14.5 | 0.00 | 0.00 | 0.00 | 86 | 1008.6 |
| 20260505071525 | 8 | 260 | 6.4 | 9.7 | 0.00 | 0.00 | 0.00 | 85 | 1008.6 |
| 20260505070020 | 8 | 248 | 6.4 | 11.3 | 0.00 | 0.00 | 0.00 | 85 | 1008.6 |
| 20260505064516 | 8 | 262 | 8.0 | 12.9 | 0.00 | 0.00 | 0.00 | 84 | 1008.5 |
| 20260505063016 | 9 | 260 | 8.0 | 17.7 | 0.00 | 0.00 | 0.00 | 82 | 1008.5 |
| 20260505061525 | 9 | 281 | 4.8 | 19.3 | 0.00 | 0.00 | 0.00 | 83 | 1008.5 |
| 20260505060013 | 8 | 247 | 8.0 | 17.7 | 0.00 | 0.00 | 0.00 | 85 | 1008.3 |
| 20260505054520 | 7 | 248 | 3.2 | 11.3 | 0.00 | 0.00 | 0.00 | 86 | 1008.4 |
| 20260505053011 | 8 | 220 | 3.2 | 14.5 | 0.00 | 0.00 | 0.00 | 84 | 1008.1 |
| 20260505051508 | 8 | 241 | 3.2 | 11.3 | 0.00 | 0.00 | 0.00 | 84 | 1008.1 |
| 20260505041503 | 9 | 228 | 4.8 | 14.5 | 0.00 | 0.00 | 0.00 | 84 | 1008.0 |
| 20260505040000 | 8 | 219 | 3.2 | 8.0 | 0.00 | 0.00 | 0.00 | 84 | 1008.0 |
| 20260505034600 | 8 | 222 | 3.2 | 9.7 | 0.00 | 0.00 | 0.00 | 84 | 1008.0 |
| 20260505033100 | 8 | 245 | 3.2 | 8.0 | 0.00 | 0.00 | 0.00 | 83 | 1007.9 |
| 20260505031613 | 9 | 239 | 3.2 | 9.7 | 0.00 | 0.00 | 0.00 | 82 | 1007.7 |
| 20260505030058 | 9 | 243 | 4.8 | 9.7 | 0.00 | 0.00 | 0.00 | 82 | 1007.8 |
| 20260505024610 | 9 | 255 | 4.8 | 11.3 | 0.00 | 0.00 | 0.00 | 81 | 1007.9 |
| 20260505023057 | 10 | 271 | 8.0 | 12.9 | 0.00 | 0.00 | 0.00 | 80 | 1007.7 |
| 20260505021611 | 10 | 216 | 6.4 | 19.3 | 0.00 | 0.00 | 0.00 | 80 | 1007.7 |
| 20260505020055 | 9 | 225 | 8.0 | 17.7 | 0.00 | 0.00 | 0.00 | 80 | 1007.7 |
| 20260505014555 | 9 | 235 | 6.4 | 12.9 | 0.00 | 0.00 | 0.00 | 81 | 1007.6 |
| 20260505013056 | 8 | 214 | 6.4 | 14.5 | 0.00 | 0.00 | 0.00 | 82 | 1007.5 |
| 20260505011557 | 8 | 221 | 6.4 | 14.5 | 0.00 | 0.00 | 0.00 | 82 | 1007.3 |
| 20260505010052 | 8 | 210 | 6.4 | 16.1 | 0.00 | 0.00 | 0.00 | 82 | 1007.1 |
| 20260505004552 | 8 | 229 | 8.0 | 12.9 | 0.00 | 0.00 | 0.00 | 85 | 1007.1 |
| 20260505003152 | 8 | 206 | 4.8 | 11.3 | 0.00 | 0.00 | 0.00 | 82 | 1007.0 |
| 20260505001551 | 9 | 189 | 6.4 | 12.9 | 0.00 | 0.00 | 0.00 | 80 | 1006.8 |
| 20260505000050 | 9 | 177 | 9.7 | 17.7 | 0.00 | 0.00 | 0.00 | 79 | 1006.5 |
| 20260504234550 | 9 | 169 | 6.4 | 14.5 | 0.00 | 0.00 | 0.00 | 79 | 1006.3 |
| 20260504233058 | 10 | 174 | 8.0 | 11.3 | 0.00 | 0.00 | 0.00 | 78 | 1006.0 |
| 20260504231549 | 11 | 181 | 8.0 | 16.1 | 0.00 | 0.00 | 0.00 | 75 | 1005.8 |
| 20260504230048 | 12 | 187 | 1.6 | 8.0 | 0.00 | 0.00 | 0.00 | 73 | 1005.6 |
| 20260504224548 | 12 | 168 | 3.2 | 11.3 | 0.00 | 0.00 | 0.00 | 72 | 1005.4 |
| 20260504223054 | 13 | 172 | 6.4 | 9.7 | 0.00 | 0.00 | 0.00 | 70 | 1005.4 |
| 20260504221551 | 13 | 159 | 4.8 | 11.3 | 0.00 | 0.00 | 0.00 | 68 | 1005.4 |
| 20260504220104 | 14 | 197 | 3.2 | 9.7 | 0.00 | 0.00 | 0.00 | 66 | 1005.3 |
| 20260504214546 | 15 | 208 | 4.8 | 11.3 | 0.00 | 0.00 | 0.00 | 66 | 1005.1 |
| 20260504213055 | 15 | 197 | 3.2 | 12.9 | 0.00 | 0.00 | 0.00 | 62 | 1005.0 |
| 20260504211545 | 15 | 170 | 4.8 | 14.5 | 0.00 | 0.00 | 0.00 | 62 | 1005.2 |
| 20260504210047 | 15 | 178 | 3.2 | 16.1 | 0.00 | 0.00 | 0.00 | 61 | 1005.1 |
| 20260504204559 | 15 | 216 | 8.0 | 17.7 | 0.00 | 0.00 | 0.00 | 59 | 1004.9 |
| 20260504203044 | 15 | 192 | 6.4 | 16.1 | 0.00 | 0.00 | 0.00 | 58 | 1004.8 |
| 20260504201543 | 15 | 224 | 4.8 | 16.1 | 0.00 | 0.00 | 0.00 | 60 | 1004.9 |
| 20260504200044 | 15 | 189 | 9.7 | 14.5 | 0.00 | 0.05 | 0.00 | 65 | 1004.9 |
| 20260504194544 | 15 | 245 | 8.0 | 14.5 | 0.00 | 0.05 | 0.00 | 64 | 1004.9 |
| 20260504193038 | 14 | 182 | 9.7 | 14.5 | 0.00 | 0.05 | 0.00 | 66 | 1005.0 |
| 20260504191540 | 13 | 241 | 9.7 | 20.9 | 0.00 | 0.05 | 0.00 | 65 | 1005.3 |
| 20260504190038 | 13 | 245 | 8.0 | 20.9 | 0.00 | 0.15 | 0.00 | 66 | 1005.6 |
| 20260504184536 | 13 | 240 | 14.5 | 22.5 | 0.00 | 0.15 | 0.00 | 65 | 1005.7 |
| 20260504183033 | 12 | 245 | 9.7 | 24.1 | 0.00 | 0.15 | 0.00 | 67 | 1005.9 |
| 20260504181531 | 12 | 243 | 12.9 | 27.4 | 0.00 | 0.15 | 0.00 | 66 | 1005.7 |
| 20260504180031 | 12 | 233 | 11.3 | 27.4 | 0.00 | 0.36 | 0.00 | 66 | 1005.5 |
| 20260504174530 | 12 | 244 | 17.7 | 35.4 | 0.00 | 0.36 | 0.00 | 64 | 1005.2 |
| 20260504173030 | 12 | 211 | 12.9 | 29.0 | 0.00 | 0.36 | 0.00 | 66 | 1005.1 |
| 20260504171529 | 12 | 241 | 4.8 | 32.2 | 0.00 | 0.36 | 0.00 | 66 | 1005.2 |
| 20260504170127 | 11 | 187 | 14.5 | 27.4 | 0.00 | 0.36 | 0.00 | 69 | 1005.2 |